Powrót do katalogu

STARLINK-32434

AktywnyŁącznośćVLEO
NORAD 61913·PAYLOAD·🇺🇸 United States

Wystrzelony Nov 11, 2024 z Cape Canaveral Space Force Station

Loading…

Następne Przeloty (najbliższe 24 godziny)

TLE

ŚwieżeSource: CelesTrak SupGP

Epoka: Sep 15, 2026, 01:59 UTC

1 61913C 24207B   26258.08312500  .00032704  00000+0  11846-2 0  2582
2 61913  43.0025 292.4625 0001346 266.6059  97.3823 15.27561926    11

Śledź STARLINK-32434 w czasie rzeczywistym z AllMySat

Download on the App Store